CZ-3B R/B, 44867

Orbit data source: Space-Track

CZ-3B R/B, 44867 is space debris originally from a launch on Mon, 16 Dec 2019 UTC launched from the Xichang Space Center, China (XSC). Debris objects in space refer to the collection of defunct objects orbiting the Earth. Examples of debris include non-operational satellites, rocket bodies, and fragments generated from explosions, collisions, or faulty payload assembly.

Loading next visibility...
Identifier
44867, 2019-090D
Orbit
Active
Last TLE update
21 hours ago
Origin
Manufacturer
CALT
Mission
Spacecraft
Bus & Motor
CZ-3A STAGE 3, Unknown motor
Mass
~2,800 kg wet, ~2,800 kg dry
Launch date (UTC)
2019-12-16 (5 years ago)
Launch vehicle
Unknown
Launch site
Xichang Space Center, China (XSC)
Object type
Payload
Rocket body
Debris
Shape & HBR
Cyl + 1 Nozzle, 12.38 m
Radar Cross Section
32.704 m², Large (>1 m²)

Expand to show TLE details & history

TLE from 21 hours ago
0 CZ-3B R/B
1 44867U 19090D   25128.99051968  .00992903  37659-6  70229-3 0  9994
2 44867  54.9441 353.1817 4122871 141.9921 255.9421  7.43231241 94578
Epoch: 2025-05-08T23:46Z
Definitive object data (Epoch: 2025-05-08T23:46:20.9Z)
Latitude
0.00001°
Longitude
129.54153°
Altitude
7,252.751 km
Speed
4.75 km/s
True Right ascension
23h 32m 43s
True Declination
0° 00' 00"
Sunlit
Object was in daylight at TLE epoch
Visualization TLE readout
Latitude
-52.60105°
Longitude
62.23999°
Altitude
7,219.341 km
Speed
4.763 km/s
Apparent Right ascension
18h 21m 41s
Apparent Declination
-49° 15' 20"
Sunlit
Object is in daylight
Visualization observer readout
Local Sidereal Time
05:10:21
Azimuth
227.618° WSW
Elevation
-74.3°
Doppler factor
1
Orbital elements
Apogee altitude
9,286.058 km
Perigee altitude
140.403 km
Semi-major axis
11,091.367 km
Eccentricity
0.4122871
Inclination
54.9441°
RAAN
353.1817°
Arg. of periapsis
141.9921°
True anomaly
218.07993°
Mean anomaly
255.9421°
Eccentric anomaly
236.29139°
Mean motion
1.85808 °/min
BSTAR
0.00070229
Orbital period
193.75 mins
Loading maneuver chart data...
Loading SW <> Apogee altitude chart data...
Loading historical data...
Loading historical data...
Loading historical data...
Loading historical data...
Loading historical data...
Loading historical data...
Loading historical data...
Other satellites on launch #90 in the year 2019 (2019-12-16 UTC)

CZ-3B R/B Visibility forecast

Observer location: undefined°, undefined°

Span
Click to sort rows by Start time (UTC) header in descending order
Start Az.
Max El. time (UTC)
Max El. Az.
Max El.
End time (UTC)
End Az.
52 mins2025-05-10 14:08:08.241Z173.271° S2025-05-10 14:46:08.241Z123.952° SE30.682°2025-05-10 15:00:08.241Z68.347° E
42 mins2025-05-10 17:39:08.241Z230.019° WSW2025-05-10 18:13:08.241Z330.827° NNW43.765°2025-05-10 18:21:08.241Z43.966° NE
|